| Date | Time | Temp. (oF) | Dew Point (oF) | Rel. Hum. (%) | Press. (in.) | Wind Dir. | Wind Speed (mph) | Hourly Rainfall (in.) |
|
|---|---|---|---|---|---|---|---|---|---|
| 1 | 03/14 | 00:00 | 48 | 47 | 99 | 29.42 | ENE | 16 | 0.00 |
| 2 | 03/13 | 23:00 | 48 | 47 | 99 | 29.42 | N | 5 | 0.00 |
| 3 | 03/13 | 22:00 | 49 | 49 | 100 | 29.41 | E | 7 | 0.00 |
| 4 | 03/13 | 21:00 | 49 | 49 | 100 | 29.40 | E | 8 | 0.01 |
| 5 | 03/13 | 20:00 | 49 | 49 | 100 | 29.38 | NNE | 3 | 0.00 |
| 6 | 03/13 | 19:00 | 49 | 49 | 100 | 29.35 | SE | 8 | 0.09 |
| 7 | 03/13 | 18:00 | 47 | 46 | 100 | 29.31 | ENE | 7 | 0.10 |
| 8 | 03/13 | 17:00 | 48 | 47 | 99 | 29.33 | NE | 7 | 0.14 |
| 9 | 03/13 | 16:00 | 48 | 48 | 100 | 29.39 | NE | 7 | 0.22 |
| 10 | 03/13 | 15:00 | 49 | 49 | 100 | 29.44 | E | 7 | 0.16 |
| 11 | 03/13 | 14:00 | 49 | 48 | 99 | 29.47 | E | 8 | 0.04 |
| 12 | 03/13 | 13:00 | 50 | 49 | 99 | 29.49 | SSE | 7 | 0.02 |
| 13 | 03/13 | 12:00 | 49 | 48 | 99 | 29.50 | ENE | 7 | 0.00 |
| 14 | 03/13 | 11:00 | 47 | 46 | 98 | 29.51 | ESE | 13 | 0.00 |
| 15 | 03/13 | 10:00 | 46 | 45 | 99 | 29.55 | ESE | 8 | 0.01 |
| 16 | 03/13 | 09:00 | 45 | 44 | 98 | 29.57 | ENE | 18 | 0.00 |
| 17 | 03/13 | 08:00 | 44 | 44 | 100 | 29.58 | N | 18 | 0.04 |
| 18 | 03/13 | 07:00 | 44 | 44 | 100 | 29.58 | ENE | 20 | 0.04 |
| 19 | 03/13 | 06:00 | 43 | 42 | 100 | 29.59 | NE | 23 | 0.00 |
| 20 | 03/13 | 05:00 | 43 | 42 | 99 | 29.63 | E | 21 | 0.00 |
| 21 | 03/13 | 04:00 | 44 | 44 | 100 | 29.66 | S | 14 | 0.04 |
| 22 | 03/13 | 03:00 | 43 | 42 | 100 | 29.69 | E | 10 | 0.03 |
| 23 | 03/13 | 02:00 | 43 | 42 | 99 | 29.74 | E | 13 | 0.00 |
| 24 | 03/13 | 01:00 | 44 | 43 | 98 | 29.79 | ESE | 9 | 0.00 |